Sharm El Sheikh, Egypt

1:54 PM EET on July 07, 2015 (GMT +0200)
Sharm El Sheikh International | | Change Station
CLOSE
Current Station
Airport
Location: Sharm El Sheikh,
Elevation: 164 ft
Nearby Weather Stations

Elev 164 ft 27.98 °N, 34.39 °E | Updated 54 minutes ago

Clear
Clear
95 °F
Feels Like 93 °F
N
12
Wind Variable Wind from NNE

Today
High -- | Low -- °F
--% Chance of Precip.
Yesterday
High -- | Low -- °F
Precip. -- in
4:51 AM 6:42 PM
Waning Gibbous, 65% visible
Pressure 29.74 in
Visibility -9999.0 miles
Clouds
Heat Index 93 °F
Dew Point 55 °F
Humidity 26%
Rainfall 0.00 in
Snow Depth Not available.
UV Not available.
Pollen Not available.
Air Quality Not available.
Flu Activity Not available.
METAR HESH 071100Z 03010KT CAVOK 35/13 Q1007 NOSIG

More Conditions Fewer Conditions

Pressure 29.74 in
Visibility -9999.0 miles
Clouds
Heat Index 93 °F
Dew Point 55 °F
Humidity 26%
Rainfall 0.00 in
Snow Depth Not available.
UV Not available.
Pollen Not available.
Air Quality Not available.
Flu Activity Not available.
METAR HESH 071100Z 03010KT CAVOK 35/13 Q1007 NOSIG

More Conditions Fewer Conditions

10-Day Weather Forecast

×

Almanac

Astronomy

Jul. 07, 2015 Rise Set
Actual Time
Civil Twilight
Nautical Twilight
Astronomical Twilight
Moon
Length of Visible Light
Length of Day
Tomorrow will be .
, % of the Moon is Illuminated

Today's Extremes

Country Highs Country Lows

Community

WunderPhotos

Upload Photos

1,835,770 photos uploaded!

WunderBlogs® & News

Nearby

Air Quality

  Air Quality AQ Index Pollutant
Not available.

Snow Depth

Station Depth Elevation

Earthquake Activity

City Distance Mag. Time & Date
Minimum magnitude displayed is 2.5.

Coastal Water Temperatures

Place Temperature

Stations

Nearby Weather Stations

Station Location Temp. Windchill Dew Point Humidity Wind Precip. Elev Updated Type